Thompson Airport
CYTH : now visible

Airfield :











YOU CAN JOIN US ON...

 
LOGIN :

Register | Disclaimer

   EN    FR    IT 

 









Legend :    VFR   Marginal VFR   IFR   Intensive IFR   Very Intensive IFR
Visi :
Ceiling :
>= 8 km
>= 3000ft
5 to 8 km
1000 to 3000 ft
1500m to 5 km
500 to 1000 ft
800 to 1500m
200 to 500 ft
< 800m
< 200 ft
Symbols :   Thunderstorms  Fog  Heavy snow  Heavy precipitations  Wind > 20 kt






- Airport Elevation : 729 ft
- IATA code : YTH


CYTH - Thompson

CURRENT METAR :
  • 211800Z CCA 24005KT 210V280 15SM SCT025 OVC082 M01/M06 A3005 RMK SC4AC4 SLP196

EXPIRED METARs :
  • 211700Z VRB02KT 15SM FEW030 BKN085 M02/M06 A3006 RMK SC1AC6 SLP197

TAF TAF CYTH
Valid from the 21 at 19:00 until the 22 at 07:00 UTC


211838Z 2119/2207 24005KT P6SM SCT025 BKN080
TEMPO 2119/2207 P6SM -SN BKN025 OVC080
BECMG 2120/2122 30006KT RMK NXT FCST BY 220100Z
CZWG FIR / North America



MET'MAP, your aeronautical weather chart ! - Copyright ORBIFLY December 2007 - Disclaimer

ORBIFLY MET'MAP TEAM :

Programming & Development : Alexandra Zaïnal
Concept & original design : Baudouin d'Aumeries
Assistance for programming : Marc-Olivier Méhu
Technical & hardware support : Manuel Goepfert

Contact : metmap@orbifly.com




SOURCES & CREDITS :

   NOAA       Earth
Advisory